Location: Unspecified
(0.0000°N, 0.0000°E)
Time: 07:15:01
(UTC+00:00)

Tiangong 2 - Pass Details

Date: 22 May 2017
Orbit: 391 x 396 km, 42.8° (Epoch: 28 June)

Event Time Altitude Azimuth Distance (km) Brightness Sun altitude
Rises 05:03:14 0° 338° (NNW) 2,271 5.0 -12.5°
Reaches altitude 10° 05:05:41 10° 356° (N) 1,420 4.1 -11.9°
Maximum altitude 05:08:05 19° 45° (NE) 994 4.1 -11.4°
Drops below altitude 10° 05:10:30 10° 94° (E) 1,427 5.1 -10.8°
Sets 05:12:57 0° 112° (ESE) 2,287 5.8 -10.2°
